User: anonymous   Login
Location: Unspecified
(0.0000°N, 0.0000°E)
Time: 07:19:25
(UTC+02:00)
Language:

Meteor 1-10 Rocket - Orbit

View from above orbital plane
View from above orbital plane
View from above satellite
View from above satellite

Ground track
Ground track

The orbit data is extracted from the following two-line orbital elements,

1  5732U 71120B   17115.70664229 +.00000100 +00000-0 +52607-4 0  9994
2  5732 081.2523 173.8384 0051558 189.6021 170.4167 14.05939537331554
Epoch (UTC): 25 April 2017 16:57:33
Eccentricity: 0.0051558
inclination: 81.2523°
perigee height: 836 km
apogee height: 910 km
right ascension of ascending node: 173.8384°
argument of perigee: 189.6021°
revolutions per day: 14.05939537
mean anomaly at epoch: 170.4167°
orbit number at epoch: 33155

The dashed part of the orbit path shows where the satellite is in the earth's shadow,  

DLR